Погода в Тырке

Погода в Тырке : погода сейчас, прогноз погоды и архив. Всё, что Вы хотите узнать о погоде в Тырке!

Хотите узнать прогноз погоды в Тырке? Тогда Вам сюда: Погода в Тырке

Поиск расширенной информации на нашем сайте:

Другие новости

Новости СМИ2

Главная страница сайта

Новости сайта

03.07.2017

Напоминаем, что на нашем специализированном сайте Метеоцентр.Азия вы можете получить высокодетализированные автоматические прогнозы погоды по пунктам России, СНГ и мира в авиационном формате (включающие направление и скорость ветра, видимость, явления погоды, количество и форму облачности, нижнюю и верхнюю границу облачности).


Погода в Тырке - сегодня

Время (UTC), дата Ветер
(°,м/с) 
Видим.   Явления Облачность Т
(°С)
Тd
(°С)
f(%) Тe
(°С)
Pmin
(гПа)
dP
(гПа)
Po
(мм)
O2
(г/м3)
Тmin Tmax R s Состояние
почвы
09 17.06.18 230 (ЮЗ) 20000 м  ливневой дождь, в посл. час гроза  9/9 600 м кучево-дожд. 
[Cb cap]
+14.1 +7.6 65 +15  1009.1  -0.4  701  267           
15 17.06.18 110 (В) н/о    1/1 600 м 
[Sc diur, vesp]
+10.3 +7.8 84 +11  1012  1.5  702  271           
18 17.06.18 110 (В) н/о    1/0 верхняя 
[Ci fib]
+6.1 +5.2 94 +7  1014.2  0.9  703  276           
21 17.06.18 060 (СВ) 20000 м  туман на расстоянии  ясно 
+3.8 +3.3 97 +5  1015.1  0.2  703  279           
03 18.06.18 280 (З) 20000 м    6/1 600 м средняя 
[Cu med, cong|Ac trans]
+20.1 +8.7 48 +21  1011.4  -0.5  704  263           
09 18.06.18 тихо ()   20000 м  осадки на расстоянии{гроза, ливн. осадки}  9/9 600 м кучево-дожд. 
[Cb cap]
+19.6 +9.9 53 +22  1010.8  -0.3  703  263           
15 18.06.18 тихо ()   н/о    1/0 верхняя 
[Ci fib]
+9.6 +8.4 92 +10  1013.8  0.2  704  272           
18 18.06.18 тихо ()   н/о  туман на расстоянии  ясно 
+8.1 +7.7 97 +8  1014.6  0.4  704  274           
21 18.06.18 тихо ()   0500 м  туман  ?/?  
+6.3 +6.1 99 +6  1014.7  -0.5  703  276           
03 19.06.18 250 (З) 20000 м    3/3 600 м 
[Cu med, cong]
+22.9 +9.7 43 +25  1008.9  -2.5  703  259           
06 19.06.18 250 (З) 20000 м    4/3 1000 м верхняя 
[Cu med, cong|Ci sp]
+25.5 +5.1 27 +26  1006.8  -1.9  701  257           
09 19.06.18 030 (СВ) 20000 м    3/1 1000 м верхняя 
[Cu med, cong|Ci sp]
+26.9 +3.1 22 +27  1004.2  -1.4  700  256           
15 19.06.18 тихо ()   н/о    4/0 верхняя 
[Ci fib]
+14.5 +7.7 64 +15  1006.8  0.4  700  266           
18 19.06.18 110 (В) н/о    4/0 верхняя 
[Ci fib]
+9.6 +7.5 87 +11  1008.3  0.2  700  271           
21 19.06.18 тихо ()   20000 м  туман на расстоянии  6/0 верхняя 
[Ci]
+7.2 +6.5 95 +7  1008.1  -0.8  699  273           
03 20.06.18 240 (ЮЗ) 20000 м    10/3 1000 м средняя, верхняя 
[Cu hum|Ac lent|Ci fib]
+24 +10 41 +27  1002.5  -0.9  698  257           
06 20.06.18 040 (СВ) 20000 м    6/3 1000 м средняя, верхняя 
[Cu hum|Ac lent|Ci fib]
+28 +4.9 23 +28  999.8  -1.7  697  254           
09 20.06.18 300 (СЗ) 20000 м    4/1 1000 м средняя, верхняя 
[Cu hum|Ac trans|Ci fib]
+29.2 +3.3 19 +29  998.4  -1.1  696  253           
15 20.06.18 тихо ()   н/о    8/8 600 м кучево-дожд. 
[Cb cap]
+18 +9.2 56 +20  1003  698  262           
18 20.06.18 тихо ()   н/о    10/10 600 м кучево-дожд. 
[Cb cap]
+16 +9.7 66 +18  1002.8  -0.7  697  263           
21 20.06.18 тихо ()   20000 м    9/9 600 м кучево-дожд. 
[Cb cap]
+13.7 +11.1 84 +18  1003.9  0.5  697  265           
03 21.06.18 280 (З) 20000 м    9/0 средняя, верхняя 
[Ac trans|Ci fib]
+24.1 +12.9 50 +31  1001.4  -0.1  698  256           
06 21.06.18 290 (З) 20000 м    6/4 600 м кучево-дожд., средняя, верхняя 
[Cb cap|Ac cast|Ci fib]
+28.3 +10.3 33 +31  998.9  -1.4  697  252           
09 21.06.18 300 (СЗ) 20000 м  гроза без осадков  10/10 600 м кучево-дожд. 
[Cb cap]
+26 +8.8 34 +27  999.2  -0.3  696  255           
15 21.06.18 100 (В) н/о    4/1 600 м средняя, верхняя 
[Sc diur, vesp|Ac trans|Ci fib]
+16.3 +12.5 78 +24  1003.8  0.7  698  263           
Время (UTC), дата Ветер
(°,м/с) 
Видим.   Явления Облачность Т
(°С)
Тd
(°С)
f(%) Тe
(°С)
Pmin
(гПа)
dP
(гПа)
Po
(мм)
O2
(г/м3)
Тmin Tmax R s Состояние
почвы

Для получения пояснительной информации подведите курсор к названию столбца.

ПОГОДА в Тырке - архив

Всё, что Вы хотите узнать о погоде в Тырке - удобно и подробно!

Выберите нужную дату (начиная с 1 января 2015* года) и нажмите кнопку "Найти".
Будут отображены архивные сводки погоды по пункту Тырка, начиная с указанной даты.


Отображать данные в формате CSV (для использования в таблицах Excel)


Внимание! Наш архив погоды предназначен исключительно для личного некоммерческого использования в познавательных целях. Если Вам необходимы официальные справки о состоянии погоды (для производственных, юридических, коммерческих и т.п. целей), обращайтесь в органы Росгидромета.

*Примечание: данная дата относится к архиву по метеостанциям СССР (Россия, СНГ, Балтия).
Архив по метеостанциям Зарубежной Европы и Азии (кроме Китая) хранится 10 дней, по другим регионам земного шара (Китай, Африка, Америка, Австралия, Океания) - 1 день.

Тырка - район местоположения метеостанции


Название, широта, долгота, высота метеостанции:
Тырка 54.5°ш. 107.1°д. 650 м над ур. моря [Российская Федерация]

Дополнительная информация

В oтличие oт бoльшинства пoгoдных сайтoв мы публикуем пoдрoбную метеoинфoрмацию в детальнoм прoфессиoнальнoм фoрмате.

Характеристики температуры и влажнoсти вoздуха измеряются на высoте 2 м в тени вдали oт зданий и деревьев.
Скoрoсть ветра измеряется на высoте 10 м (на урoвне рoста челoвека скoрoсть ветра ниже в 1.5-2 раза). Если метеoстанция нахoдится в гoрoде или в лесу, тo скoрoсть ветра занижена на 2-4 м/с пo сравнению с oткрытым местoм. Скoрoсть ветра над акватoриями крупных рек и oзёр, а также на вершинах хoлмoв на 2-5 м/с выше, чем в oбычных услoвиях.
Атмoсфернoе давление в разных тoчках местнoсти мoжет значительнo oтличаться oт давления на метеoстанции, в зависимoсти oт услoвий рельефа (при пoдъёме на 10 м давление пoнижается примернo на 1 мм рт.ст.).